| time (UTC) | temp F | wind direction | speed MPH | gust MPH | rain 1hr in | rain 24hr in | rain mn in | humidity % | barometer mb |
| 20260505204113 | 83 | 262 | 4.0 | 12.0 | 0.00 | 0.00 | 0.00 | 33 | 1006.8 |
| 20260505203612 | 83 | 245 | 2.0 | 7.0 | 0.00 | 0.00 | 0.00 | 34 | 1006.8 |
| 20260505203112 | 83 | 252 | 3.0 | 11.0 | 0.00 | 0.00 | 0.00 | 33 | 1006.7 |
| 20260505202610 | 83 | 86 | 4.0 | 14.0 | 0.00 | 0.00 | 0.00 | 33 | 1006.8 |
| 20260505202110 | 84 | 223 | 4.0 | 14.0 | 0.00 | 0.00 | 0.00 | 32 | 1007.0 |
| 20260505201850 | 84 | 230 | 2.0 | 11.0 | 0.00 | 0.00 | 0.00 | 32 | 1006.8 |
| 20260505201110 | 84 | 233 | 2.0 | 16.0 | 0.00 | 0.00 | 0.00 | 33 | 1006.8 |
| 20260505200612 | 84 | 241 | 5.0 | 16.0 | 0.00 | 0.00 | 0.00 | 31 | 1006.9 |
| 20260505200111 | 84 | 168 | 5.0 | 10.0 | 0.00 | 0.00 | 0.00 | 30 | 1006.9 |
| 20260505195608 | 84 | 207 | 4.0 | 11.0 | 0.00 | 0.00 | 0.00 | 31 | 1006.9 |
| 20260505195107 | 85 | 155 | 4.0 | 11.0 | 0.00 | 0.00 | 0.00 | 30 | 1006.9 |
| 20260505194608 | 85 | 199 | 2.0 | 14.0 | 0.00 | 0.00 | 0.00 | 30 | 1006.9 |
| 20260505194106 | 85 | 130 | 6.0 | 14.0 | 0.00 | 0.00 | 0.00 | 28 | 1007.1 |
| 20260505193604 | 85 | 96 | 3.0 | 11.0 | 0.00 | 0.00 | 0.00 | 32 | 1007.1 |
| 20260505193103 | 85 | 250 | 3.0 | 13.0 | 0.00 | 0.00 | 0.00 | 31 | 1007.3 |
| 20260505192604 | 85 | 134 | 6.0 | 13.0 | 0.00 | 0.00 | 0.00 | 28 | 1007.0 |
| 20260505192102 | 85 | 235 | 5.0 | 13.0 | 0.00 | 0.00 | 0.00 | 29 | 1007.4 |
| 20260505191841 | 85 | 213 | 4.0 | 13.0 | 0.00 | 0.00 | 0.00 | 30 | 1007.4 |
| 20260505191102 | 86 | 196 | 4.0 | 11.0 | 0.00 | 0.00 | 0.00 | 29 | 1007.4 |
| 20260505190601 | 85 | 193 | 3.0 | 10.0 | 0.00 | 0.00 | 0.00 | 31 | 1007.4 |
| 20260505190343 | 86 | 111 | 3.0 | 7.0 | 0.00 | 0.00 | 0.00 | 32 | 1007.6 |
| 20260505185600 | 87 | 223 | 3.0 | 9.0 | 0.00 | 0.00 | 0.00 | 32 | 1007.8 |
| 20260505185100 | 86 | 261 | 3.0 | 10.0 | 0.00 | 0.00 | 0.00 | 30 | 1007.7 |
| 20260505184603 | 86 | 248 | 4.0 | 10.0 | 0.00 | 0.00 | 0.00 | 31 | 1007.9 |
| 20260505184056 | 85 | 281 | 4.0 | 10.0 | 0.00 | 0.00 | 0.00 | 30 | 1007.9 |
| 20260505183555 | 85 | 261 | 5.0 | 10.0 | 0.00 | 0.00 | 0.00 | 30 | 1008.0 |
| 20260505183056 | 85 | 259 | 5.0 | 12.0 | 0.00 | 0.00 | 0.00 | 29 | 1008.3 |
| 20260505182554 | 86 | 237 | 4.0 | 12.0 | 0.00 | 0.00 | 0.00 | 30 | 1008.1 |
| 20260505182054 | 86 | 216 | 2.0 | 7.0 | 0.00 | 0.00 | 0.00 | 34 | 1008.2 |
| 20260505181554 | 86 | 185 | 4.0 | 11.0 | 0.00 | 0.00 | 0.00 | 30 | 1008.2 |
| 20260505181054 | 86 | 314 | 4.0 | 11.0 | 0.00 | 0.00 | 0.00 | 31 | 1008.4 |
| 20260505180551 | 85 | 241 | 2.0 | 9.0 | 0.00 | 0.00 | 0.00 | 32 | 1008.4 |
| 20260505180050 | 85 | 271 | 4.0 | 10.0 | 0.00 | 0.00 | 0.00 | 31 | 1008.4 |
| 20260505175547 | 85 | 117 | 5.0 | 10.0 | 0.00 | 0.00 | 0.00 | 30 | 1008.4 |
| 20260505175326 | 85 | 219 | 2.0 | 10.0 | 0.00 | 0.00 | 0.00 | 33 | 1008.5 |
| 20260505174548 | 86 | 133 | 4.0 | 10.0 | 0.00 | 0.00 | 0.00 | 32 | 1008.5 |
| 20260505174047 | 86 | 227 | 3.0 | 9.0 | 0.00 | 0.00 | 0.00 | 32 | 1008.6 |
| 20260505173824 | 85 | 220 | 4.0 | 9.0 | 0.00 | 0.00 | 0.00 | 31 | 1008.6 |
| 20260505173044 | 86 | 341 | 3.0 | 9.0 | 0.00 | 0.00 | 0.00 | 32 | 1008.7 |
| 20260505172543 | 87 | 257 | 3.0 | 7.0 | 0.00 | 0.00 | 0.00 | 33 | 1008.7 |
| 20260505172045 | 86 | 272 | 2.0 | 6.0 | 0.00 | 0.00 | 0.00 | 36 | 1008.6 |
| 20260505171542 | 85 | 234 | 2.0 | 9.0 | 0.00 | 0.00 | 0.00 | 32 | 1008.7 |
| 20260505171317 | 85 | 212 | 2.0 | 9.0 | 0.00 | 0.00 | 0.00 | 34 | 1008.7 |
| 20260505170846 | 85 | 317 | 4.0 | 14.0 | 0.00 | 0.00 | 0.00 | 34 | 1008.8 |
| 20260505170557 | 85 | 135 | 3.0 | 14.0 | 0.00 | 0.00 | 0.00 | 33 | 1008.9 |
| 20260505165539 | 85 | 233 | 5.0 | 10.0 | 0.00 | 0.00 | 0.00 | 33 | 1008.9 |
| 20260505165037 | 85 | 199 | 2.0 | 9.0 | 0.00 | 0.00 | 0.00 | 37 | 1008.9 |
| 20260505164537 | 85 | 224 | 3.0 | 7.0 | 0.00 | 0.00 | 0.00 | 34 | 1009.0 |
| 20260505164037 | 85 | 195 | 3.0 | 6.0 | 0.00 | 0.00 | 0.00 | 37 | 1009.1 |
| 20260505163538 | 85 | 314 | 2.0 | 6.0 | 0.00 | 0.00 | 0.00 | 36 | 1009.2 |
| 20260505163037 | 85 | 265 | 3.0 | 6.0 | 0.00 | 0.00 | 0.00 | 36 | 1009.3 |
| 20260505162535 | 85 | 106 | 2.0 | 9.0 | 0.00 | 0.00 | 0.00 | 38 | 1009.3 |
| 20260505162037 | 84 | 272 | 3.0 | 9.0 | 0.00 | 0.00 | 0.00 | 37 | 1009.5 |
| 20260505161536 | 84 | 234 | 2.0 | 9.0 | 0.00 | 0.00 | 0.00 | 36 | 1009.7 |
| 20260505161035 | 85 | 176 | 2.0 | 5.0 | 0.00 | 0.00 | 0.00 | 36 | 1009.7 |
| 20260505160904 | 84 | 214 | 2.0 | 6.0 | 0.00 | 0.00 | 0.00 | 38 | 1009.9 |
| 20260505160613 | 85 | 278 | 1.0 | 5.0 | 0.00 | 0.00 | 0.00 | 39 | 1009.7 |
| 20260505153034 | 83 | 192 | 2.0 | 5.0 | 0.00 | 0.00 | 0.00 | 40 | 1009.9 |
| 20260505152534 | 83 | 168 | 2.0 | 5.0 | 0.00 | 0.00 | 0.00 | 40 | 1009.9 |
| 20260505152313 | 83 | 271 | 2.0 | 5.0 | 0.00 | 0.00 | 0.00 | 40 | 1009.9 |
| 20260505151535 | 82 | 59 | 1.0 | 7.0 | 0.00 | 0.00 | 0.00 | 45 | 1010.0 |
| 20260505151033 | 82 | 10 | 1.0 | 7.0 | 0.00 | 0.00 | 0.00 | 43 | 1009.9 |
| 20260505150534 | 83 | 237 | 2.0 | 4.0 | 0.00 | 0.00 | 0.00 | 39 | 1009.9 |
| 20260505140530 | 77 | 250 | 1.0 | 5.0 | 0.00 | 0.00 | 0.00 | 48 | 1010.1 |
| 20260505125018 | 71 | 209 | 1.0 | 5.0 | 0.00 | 0.00 | 0.00 | 52 | 1010.2 |
| 20260505124518 | 71 | 243 | 0.0 | 5.0 | 0.00 | 0.00 | 0.00 | 53 | 1010.3 |
| 20260505124020 | 71 | 354 | 1.0 | 6.0 | 0.00 | 0.00 | 0.00 | 53 | 1010.4 |
| 20260505123518 | 70 | 337 | 0.0 | 6.0 | 0.00 | 0.00 | 0.00 | 54 | 1010.3 |
| 20260505123020 | 69 | 288 | 1.0 | 5.0 | 0.00 | 0.00 | 0.00 | 55 | 1010.2 |
| 20260505122518 | 68 | 245 | 1.0 | 4.0 | 0.00 | 0.00 | 0.00 | 56 | 1010.4 |
| 20260505122013 | 68 | 321 | 2.0 | 4.0 | 0.00 | 0.00 | 0.00 | 54 | 1010.2 |
| 20260505121511 | 67 | 209 | 2.0 | 6.0 | 0.00 | 0.00 | 0.00 | 56 | 1010.2 |
| 20260505121009 | 67 | 243 | 1.0 | 6.0 | 0.00 | 0.00 | 0.00 | 56 | 1010.3 |
| 20260505120509 | 66 | 282 | 2.0 | 6.0 | 0.00 | 0.00 | 0.00 | 58 | 1010.3 |
| 20260505120009 | 66 | 155 | 2.0 | 6.0 | 0.00 | 0.00 | 0.00 | 57 | 1010.2 |
| 20260505115509 | 66 | 288 | 2.0 | 5.0 | 0.00 | 0.00 | 0.00 | 59 | 1010.2 |
| 20260505115006 | 65 | 193 | 2.0 | 5.0 | 0.00 | 0.00 | 0.00 | 58 | 1009.9 |
| 20260505114504 | 64 | 251 | 1.0 | 5.0 | 0.00 | 0.00 | 0.00 | 61 | 1010.0 |
| 20260505114029 | 63 | 226 | 1.0 | 3.0 | 0.00 | 0.00 | 0.00 | 61 | 1009.9 |
| 20260505114020 | 64 | 275 | 1.0 | 3.0 | 0.00 | 0.00 | 0.00 | 60 | 1009.9 |
| 20260505113004 | 62 | 224 | 1.0 | 4.0 | 0.00 | 0.00 | 0.00 | 64 | 1009.9 |
| 20260505112502 | 61 | 223 | 1.0 | 4.0 | 0.00 | 0.00 | 0.00 | 64 | 1009.8 |
| 20260505112003 | 61 | 200 | 2.0 | 4.0 | 0.00 | 0.00 | 0.00 | 64 | 1009.8 |
| 20260505111503 | 60 | 241 | 2.0 | 3.0 | 0.00 | 0.00 | 0.00 | 64 | 1009.8 |
| 20260505111003 | 60 | 262 | 2.0 | 4.0 | 0.00 | 0.00 | 0.00 | 64 | 1009.8 |
| 20260505110502 | 60 | 228 | 1.0 | 5.0 | 0.00 | 0.00 | 0.00 | 64 | 1009.6 |
| 20260505102004 | 59 | 235 | 1.0 | 3.0 | 0.00 | 0.00 | 0.00 | 67 | 1009.2 |
| 20260505101454 | 58 | 245 | 1.0 | 3.0 | 0.00 | 0.00 | 0.00 | 67 | 1009.2 |
| 20260505100955 | 58 | 245 | 2.0 | 3.0 | 0.00 | 0.00 | 0.00 | 67 | 1009.2 |
| 20260505100450 | 58 | 210 | 1.0 | 4.0 | 0.00 | 0.00 | 0.00 | 68 | 1009.2 |
| 20260505095951 | 58 | 210 | 0.0 | 4.0 | 0.00 | 0.00 | 0.00 | 68 | 1009.2 |
| 20260505095508 | 58 | 283 | 1.0 | 3.0 | 0.00 | 0.00 | 0.00 | 68 | 1009.1 |
| 20260505095500 | 58 | 237 | 1.0 | 3.0 | 0.00 | 0.00 | 0.00 | 69 | 1009.2 |
| 20260505094438 | 58 | 219 | 1.0 | 3.0 | 0.00 | 0.00 | 0.00 | 69 | 1009.1 |
| 20260505093934 | 58 | 219 | 1.0 | 3.0 | 0.00 | 0.00 | 0.00 | 69 | 1009.0 |
| 20260505093433 | 58 | 231 | 1.0 | 3.0 | 0.00 | 0.00 | 0.00 | 70 | 1009.0 |
| 20260505092934 | 58 | 231 | 1.0 | 3.0 | 0.00 | 0.00 | 0.00 | 69 | 1009.0 |
| 20260505092432 | 58 | 243 | 2.0 | 3.0 | 0.00 | 0.00 | 0.00 | 69 | 1009.1 |
| 20260505091932 | 58 | 217 | 1.0 | 3.0 | 0.00 | 0.00 | 0.00 | 69 | 1009.0 |
| 20260505091431 | 58 | 217 | 2.0 | 3.0 | 0.00 | 0.00 | 0.00 | 69 | 1008.9 |
| 20260505090932 | 58 | 213 | 2.0 | 3.0 | 0.00 | 0.00 | 0.00 | 70 | 1009.0 |
| 20260505090712 | 58 | 216 | 1.0 | 4.0 | 0.00 | 0.00 | 0.00 | 70 | 1008.9 |
| 20260505085931 | 58 | 221 | 1.0 | 4.0 | 0.00 | 0.00 | 0.00 | 70 | 1008.8 |
| 20260505085432 | 57 | 224 | 1.0 | 2.0 | 0.00 | 0.00 | 0.00 | 71 | 1008.8 |
| 20260505084931 | 57 | 223 | 0.0 | 2.0 | 0.00 | 0.00 | 0.00 | 71 | 1008.8 |
| 20260505084430 | 57 | 224 | 1.0 | 2.0 | 0.00 | 0.00 | 0.00 | 71 | 1008.9 |
| 20260505083930 | 57 | 224 | 0.0 | 4.0 | 0.00 | 0.00 | 0.00 | 71 | 1008.9 |
| 20260505083432 | 58 | 224 | 0.0 | 4.0 | 0.00 | 0.00 | 0.00 | 71 | 1009.0 |
| 20260505082930 | 58 | 243 | 0.0 | 2.0 | 0.00 | 0.00 | 0.00 | 71 | 1008.9 |
| 20260505082430 | 57 | 247 | 1.0 | 2.0 | 0.00 | 0.00 | 0.00 | 73 | 1009.0 |
| 20260505082204 | 57 | 247 | 1.0 | 2.0 | 0.00 | 0.00 | 0.00 | 73 | 1008.9 |
| 20260505081425 | 57 | 247 | 1.0 | 2.0 | 0.00 | 0.00 | 0.00 | 74 | 1008.8 |
| 20260505080924 | 57 | 247 | 1.0 | 2.0 | 0.00 | 0.00 | 0.00 | 74 | 1008.8 |
| 20260505080424 | 57 | 247 | 0.0 | 2.0 | 0.00 | 0.00 | 0.00 | 73 | 1008.8 |
| 20260505075925 | 57 | 247 | 0.0 | 2.0 | 0.00 | 0.00 | 0.00 | 73 | 1008.7 |
| 20260505075425 | 57 | 247 | 0.0 | 1.0 | 0.00 | 0.00 | 0.00 | 73 | 1008.7 |
| 20260505074924 | 57 | 247 | 0.0 | 1.0 | 0.00 | 0.00 | 0.00 | 73 | 1008.7 |
| 20260505074424 | 57 | 247 | 0.0 | 1.0 | 0.00 | 0.00 | 0.00 | 72 | 1008.8 |
| 20260505073925 | 58 | 247 | 0.0 | 1.0 | 0.00 | 0.00 | 0.00 | 73 | 1008.7 |
| 20260505073424 | 58 | 247 | 0.0 | 1.0 | 0.00 | 0.00 | 0.00 | 72 | 1008.7 |
| 20260505072924 | 58 | 247 | 0.0 | 1.0 | 0.00 | 0.00 | 0.00 | 73 | 1008.7 |
| 20260505072423 | 59 | 247 | 0.0 | 2.0 | 0.00 | 0.00 | 0.00 | 71 | 1008.6 |
| 20260505071923 | 59 | 247 | 0.0 | 2.0 | 0.00 | 0.00 | 0.00 | 69 | 1008.7 |
| 20260505071423 | 60 | 247 | 1.0 | 2.0 | 0.00 | 0.00 | 0.00 | 69 | 1008.5 |
| 20260505070923 | 60 | 247 | 1.0 | 2.0 | 0.00 | 0.00 | 0.00 | 68 | 1008.5 |
| 20260505070424 | 60 | 247 | 1.0 | 3.0 | 0.00 | 0.00 | 0.00 | 67 | 1008.5 |
| 20260505065923 | 61 | 247 | 1.0 | 3.0 | 0.00 | 0.00 | 0.00 | 67 | 1008.5 |
| 20260505065423 | 61 | 219 | 1.0 | 4.0 | 0.00 | 0.00 | 0.00 | 67 | 1008.6 |
| 20260505064925 | 60 | 203 | 2.0 | 4.0 | 0.00 | 0.00 | 0.00 | 68 | 1008.6 |
| 20260505064448 | 60 | 316 | 2.0 | 3.0 | 0.00 | 0.00 | 0.00 | 69 | 1008.4 |
| 20260505064439 | 60 | 254 | 2.0 | 3.0 | 0.00 | 0.00 | 0.00 | 68 | 1008.5 |
| 20260505063422 | 60 | 209 | 1.0 | 3.0 | 0.00 | 0.00 | 0.00 | 68 | 1008.4 |
| 20260505062925 | 60 | 210 | 1.0 | 3.0 | 0.00 | 0.00 | 0.00 | 68 | 1008.4 |
| 20260505062422 | 60 | 209 | 1.0 | 3.0 | 0.00 | 0.00 | 0.00 | 69 | 1008.4 |
| 20260505061922 | 59 | 259 | 1.0 | 2.0 | 0.00 | 0.00 | 0.00 | 70 | 1008.5 |
| 20260505061422 | 59 | 259 | 1.0 | 2.0 | 0.00 | 0.00 | 0.00 | 71 | 1008.4 |
| 20260505060923 | 59 | 290 | 0.0 | 2.0 | 0.00 | 0.00 | 0.00 | 71 | 1008.4 |
| 20260505060422 | 59 | 290 | 0.0 | 2.0 | 0.00 | 0.00 | 0.00 | 71 | 1008.5 |
| 20260505055922 | 59 | 219 | 0.0 | 1.0 | 0.00 | 0.00 | 0.00 | 71 | 1008.5 |
| 20260505055422 | 59 | 219 | 0.0 | 1.0 | 0.00 | 0.00 | 0.00 | 71 | 1008.4 |
| 20260505054921 | 59 | 219 | 0.0 | 2.0 | 0.00 | 0.00 | 0.00 | 72 | 1008.5 |
| 20260505054422 | 59 | 219 | 1.0 | 2.0 | 0.00 | 0.00 | 0.00 | 72 | 1008.4 |
| 20260505053923 | 59 | 220 | 0.0 | 0.0 | 0.00 | 0.00 | 0.00 | 71 | 1008.5 |
| 20260505053421 | 59 | 220 | 0.0 | 0.0 | 0.00 | 0.00 | 0.00 | 72 | 1008.5 |
| 20260505052922 | 59 | 220 | 0.0 | 0.0 | 0.00 | 0.00 | 0.00 | 72 | 1008.5 |
| 20260505052421 | 59 | 220 | 0.0 | 0.0 | 0.00 | 0.00 | 0.00 | 72 | 1008.5 |
| 20260505051922 | 59 | 220 | 0.0 | 0.0 | 0.00 | 0.00 | 0.00 | 71 | 1008.5 |
| 20260505051418 | 60 | 220 | 0.0 | 0.0 | 0.00 | 0.00 | 0.00 | 70 | 1008.5 |
| 20260505050920 | 60 | 220 | 0.0 | 0.0 | 0.00 | 0.00 | 0.00 | 70 | 1008.5 |
| 20260505050419 | 60 | 220 | 0.0 | 0.0 | 0.00 | 0.00 | 0.00 | 69 | 1008.5 |
| 20260505041418 | 62 | 220 | 0.0 | 3.0 | 0.00 | 0.00 | 0.00 | 64 | 1008.8 |
| 20260505040917 | 63 | 220 | 2.0 | 3.0 | 0.00 | 0.00 | 0.00 | 64 | 1008.8 |
| 20260505040417 | 62 | 221 | 0.0 | 2.0 | 0.00 | 0.00 | 0.00 | 64 | 1008.8 |
| 20260505035917 | 62 | 227 | 1.0 | 2.0 | 0.00 | 0.00 | 0.00 | 64 | 1008.9 |
| 20260505035417 | 62 | 227 | 1.0 | 2.0 | 0.00 | 0.00 | 0.00 | 64 | 1008.7 |
| 20260505034918 | 62 | 224 | 0.0 | 2.0 | 0.00 | 0.00 | 0.00 | 63 | 1008.6 |
| 20260505034416 | 62 | 223 | 0.0 | 3.0 | 0.00 | 0.00 | 0.00 | 63 | 1008.8 |
| 20260505033917 | 62 | 223 | 1.0 | 3.0 | 0.00 | 0.00 | 0.00 | 63 | 1008.7 |
| 20260505033417 | 62 | 224 | 0.0 | 2.0 | 0.00 | 0.00 | 0.00 | 63 | 1008.8 |
| 20260505033156 | 63 | 224 | 0.0 | 2.0 | 0.00 | 0.00 | 0.00 | 62 | 1008.7 |
| 20260505032655 | 63 | 224 | 0.0 | 2.0 | 0.00 | 0.00 | 0.00 | 62 | 1008.8 |
| 20260505031918 | 63 | 226 | 0.0 | 2.0 | 0.00 | 0.00 | 0.00 | 62 | 1008.8 |
| 20260505031417 | 63 | 221 | 0.0 | 2.0 | 0.00 | 0.00 | 0.00 | 61 | 1008.7 |
| 20260505030915 | 63 | 221 | 0.0 | 2.0 | 0.00 | 0.00 | 0.00 | 61 | 1008.7 |
| 20260505030416 | 63 | 221 | 0.0 | 1.0 | 0.00 | 0.00 | 0.00 | 61 | 1008.6 |
| 20260505025918 | 63 | 221 | 0.0 | 1.0 | 0.00 | 0.00 | 0.00 | 60 | 1008.7 |
| 20260505025657 | 63 | 221 | 0.0 | 1.0 | 0.00 | 0.00 | 0.00 | 60 | 1008.7 |
| 20260505024915 | 64 | 221 | 0.0 | 1.0 | 0.00 | 0.00 | 0.00 | 59 | 1008.6 |
| 20260505024415 | 64 | 221 | 0.0 | 1.0 | 0.00 | 0.00 | 0.00 | 58 | 1008.6 |
| 20260505023918 | 64 | 221 | 0.0 | 1.0 | 0.00 | 0.00 | 0.00 | 57 | 1008.5 |
| 20260505023416 | 65 | 221 | 0.0 | 2.0 | 0.00 | 0.00 | 0.00 | 56 | 1008.6 |
| 20260505022915 | 65 | 221 | 0.0 | 2.0 | 0.00 | 0.00 | 0.00 | 56 | 1008.6 |
| 20260505022416 | 65 | 223 | 0.0 | 1.0 | 0.00 | 0.00 | 0.00 | 55 | 1008.6 |
| 20260505021917 | 66 | 223 | 0.0 | 4.0 | 0.00 | 0.00 | 0.00 | 55 | 1008.5 |
| 20260505021657 | 66 | 223 | 0.0 | 4.0 | 0.00 | 0.00 | 0.00 | 54 | 1008.5 |
| 20260505020915 | 66 | 213 | 0.0 | 3.0 | 0.00 | 0.00 | 0.00 | 54 | 1008.6 |
| 20260505020414 | 66 | 212 | 0.0 | 3.0 | 0.00 | 0.00 | 0.00 | 54 | 1008.5 |
| 20260505020154 | 66 | 269 | 0.0 | 4.0 | 0.00 | 0.00 | 0.00 | 54 | 1008.5 |
| 20260505015416 | 65 | 216 | 1.0 | 4.0 | 0.00 | 0.00 | 0.00 | 56 | 1008.4 |
| 20260505014915 | 65 | 185 | 0.0 | 1.0 | 0.00 | 0.00 | 0.00 | 56 | 1008.3 |
| 20260505014415 | 66 | 185 | 0.0 | 1.0 | 0.00 | 0.00 | 0.00 | 55 | 1008.3 |
| 20260505013914 | 66 | 185 | 0.0 | 1.0 | 0.00 | 0.00 | 0.00 | 54 | 1008.4 |
| 20260505013414 | 66 | 185 | 0.0 | 1.0 | 0.00 | 0.00 | 0.00 | 54 | 1008.2 |
| 20260505012916 | 66 | 185 | 0.0 | 1.0 | 0.00 | 0.00 | 0.00 | 54 | 1008.3 |
| 20260505012414 | 67 | 185 | 0.0 | 1.0 | 0.00 | 0.00 | 0.00 | 54 | 1008.2 |
| 20260505012157 | 67 | 185 | 0.0 | 0.0 | 0.00 | 0.00 | 0.00 | 53 | 1008.0 |
| 20260505011415 | 67 | 185 | 0.0 | 1.0 | 0.00 | 0.00 | 0.00 | 52 | 1007.8 |
| 20260505010914 | 68 | 185 | 0.0 | 2.0 | 0.00 | 0.00 | 0.00 | 51 | 1008.0 |
| 20260505010413 | 68 | 185 | 1.0 | 2.0 | 0.00 | 0.00 | 0.00 | 50 | 1007.9 |
| 20260505005913 | 68 | 221 | 0.0 | 2.0 | 0.00 | 0.00 | 0.00 | 51 | 1007.8 |
| 20260505005653 | 69 | 221 | 0.0 | 2.0 | 0.00 | 0.00 | 0.00 | 50 | 1007.8 |
| 20260505005155 | 69 | 221 | 0.0 | 1.0 | 0.00 | 0.00 | 0.00 | 50 | 1007.8 |
| 20260505004412 | 69 | 221 | 0.0 | 1.0 | 0.00 | 0.00 | 0.00 | 50 | 1007.9 |
| 20260505003914 | 69 | 220 | 0.0 | 2.0 | 0.00 | 0.00 | 0.00 | 49 | 1007.8 |
| 20260505003414 | 69 | 221 | 0.0 | 3.0 | 0.00 | 0.00 | 0.00 | 49 | 1007.8 |
| 20260505003153 | 69 | 220 | 1.0 | 3.0 | 0.00 | 0.00 | 0.00 | 48 | 1007.7 |
| 20260505002412 | 69 | 219 | 0.0 | 1.0 | 0.00 | 0.00 | 0.00 | 49 | 1007.7 |
| 20260505001914 | 69 | 219 | 0.0 | 2.0 | 0.00 | 0.00 | 0.00 | 49 | 1007.7 |
| 20260505001413 | 70 | 219 | 0.0 | 3.0 | 0.00 | 0.00 | 0.00 | 48 | 1007.7 |
| 20260505000909 | 70 | 219 | 1.0 | 4.0 | 0.00 | 0.00 | 0.00 | 48 | 1007.6 |
| 20260505000409 | 71 | 228 | 0.0 | 4.0 | 0.00 | 0.00 | 0.00 | 46 | 1007.7 |
| 20260505000148 | 71 | 223 | 1.0 | 4.0 | 0.00 | 0.00 | 0.00 | 46 | 1007.6 |
| 20260504235408 | 71 | 206 | 1.0 | 2.0 | 0.00 | 0.00 | 0.00 | 46 | 1007.7 |
| 20260504234908 | 71 | 213 | 0.0 | 5.0 | 0.00 | 0.00 | 0.00 | 46 | 1007.6 |
| 20260504234408 | 72 | 212 | 2.0 | 5.0 | 0.00 | 0.00 | 0.00 | 45 | 1007.5 |
| 20260504233906 | 72 | 266 | 1.0 | 5.0 | 0.00 | 0.00 | 0.00 | 45 | 1007.6 |
| 20260504233403 | 72 | 258 | 2.0 | 5.0 | 0.00 | 0.00 | 0.00 | 44 | 1007.5 |
| 20260504232904 | 72 | 216 | 1.0 | 4.0 | 0.00 | 0.00 | 0.00 | 44 | 1007.5 |
| 20260504232403 | 73 | 274 | 1.0 | 3.0 | 0.00 | 0.00 | 0.00 | 43 | 1007.5 |
| 20260504231903 | 73 | 226 | 2.0 | 5.0 | 0.00 | 0.00 | 0.00 | 43 | 1007.5 |
| 20260504231403 | 73 | 220 | 1.0 | 5.0 | 0.00 | 0.00 | 0.00 | 42 | 1007.4 |
| 20260504230901 | 73 | 219 | 1.0 | 6.0 | 0.00 | 0.00 | 0.00 | 42 | 1007.5 |
| 20260504230405 | 73 | 117 | 2.0 | 7.0 | 0.00 | 0.00 | 0.00 | 41 | 1007.4 |
| 20260504225854 | 73 | 213 | 3.0 | 7.0 | 0.00 | 0.00 | 0.00 | 41 | 1007.4 |
| 20260504225354 | 73 | 58 | 2.0 | 5.0 | 0.00 | 0.00 | 0.00 | 41 | 1007.4 |
| 20260504224854 | 74 | 240 | 2.0 | 6.0 | 0.00 | 0.00 | 0.00 | 40 | 1007.4 |
| 20260504224353 | 74 | 240 | 2.0 | 11.0 | 0.00 | 0.00 | 0.00 | 40 | 1007.4 |
| 20260504223847 | 74 | 217 | 3.0 | 11.0 | 0.00 | 0.00 | 0.00 | 40 | 1007.3 |
| 20260504223628 | 74 | 221 | 2.0 | 10.0 | 0.00 | 0.00 | 0.00 | 40 | 1007.3 |
| 20260504223127 | 74 | 0 | 4.0 | 10.0 | 0.00 | 0.00 | 0.00 | 40 | 1007.4 |
| 20260504222347 | 75 | 179 | 2.0 | 4.0 | 0.00 | 0.00 | 0.00 | 39 | 1007.3 |
| 20260504221847 | 75 | 204 | 1.0 | 7.0 | 0.00 | 0.00 | 0.00 | 40 | 1007.4 |
| 20260504221346 | 75 | 217 | 2.0 | 7.0 | 0.00 | 0.00 | 0.00 | 38 | 1007.3 |
| 20260504220842 | 75 | 228 | 2.0 | 5.0 | 0.00 | 0.00 | 0.00 | 39 | 1007.3 |
| 20260504220343 | 75 | 18 | 3.0 | 6.0 | 0.00 | 0.00 | 0.00 | 38 | 1007.2 |
| 20260504215844 | 75 | 107 | 3.0 | 6.0 | 0.00 | 0.00 | 0.00 | 38 | 1007.2 |
| 20260504215341 | 76 | 247 | 1.0 | 5.0 | 0.00 | 0.00 | 0.00 | 39 | 1007.3 |
| 20260504214841 | 76 | 227 | 1.0 | 7.0 | 0.00 | 0.00 | 0.00 | 38 | 1007.3 |
| 20260504214341 | 76 | 254 | 3.0 | 11.0 | 0.00 | 0.00 | 0.00 | 38 | 1007.3 |
| 20260504213841 | 76 | 117 | 2.0 | 11.0 | 0.00 | 0.00 | 0.00 | 37 | 1007.2 |
| 20260504213340 | 75 | 216 | 1.0 | 6.0 | 0.00 | 0.00 | 0.00 | 38 | 1007.2 |
| 20260504212840 | 76 | 247 | 2.0 | 10.0 | 0.00 | 0.00 | 0.00 | 37 | 1007.2 |
| 20260504212339 | 76 | 206 | 3.0 | 10.0 | 0.00 | 0.00 | 0.00 | 36 | 1007.2 |
| 20260504211840 | 77 | 17 | 1.0 | 7.0 | 0.00 | 0.00 | 0.00 | 36 | 1007.2 |
| 20260504211340 | 77 | 281 | 2.0 | 7.0 | 0.00 | 0.00 | 0.00 | 36 | 1007.3 |
| 20260504210835 | 77 | 202 | 2.0 | 6.0 | 0.00 | 0.00 | 0.00 | 38 | 1007.2 |
| 20260504210335 | 76 | 171 | 2.0 | 6.0 | 0.00 | 0.00 | 0.00 | 37 | 1007.1 |
| 20260504205837 | 76 | 166 | 1.0 | 6.0 | 0.00 | 0.00 | 0.00 | 38 | 1007.2 |
| 20260504205333 | 77 | 278 | 2.0 | 6.0 | 0.00 | 0.00 | 0.00 | 36 | 1007.2 |
| 20260504205112 | 78 | 155 | 2.0 | 5.0 | 0.00 | 0.00 | 0.00 | 35 | 1007.2 |